TimeMST,TemperatureF,Dew PointF,Humidity,Sea Level PressureIn,VisibilityMPH,Wind Direction,Wind SpeedMPH,Gust SpeedMPH,PrecipitationIn,Events,Conditions,WindDirDegrees,DateUTC
12:15 AM,35.6,26.6,70,29.88,10.0,SSE,11.5,-,N/A,,Clear,160,2012-11-18 07:15:00
12:55 AM,32.0,26.6,80,29.87,10.0,SE,8.1,-,N/A,,Clear,140,2012-11-18 07:55:00
1:15 AM,32.0,26.6,80,29.87,10.0,SE,10.4,-,N/A,,Clear,140,2012-11-18 08:15:00
1:35 AM,32.0,26.6,80,29.86,10.0,SE,10.4,-,N/A,,Clear,140,2012-11-18 08:35:00
1:55 AM,32.0,24.8,75,29.85,10.0,SE,11.5,-,N/A,,Clear,140,2012-11-18 08:55:00
2:15 AM,32.0,24.8,75,29.84,10.0,SE,9.2,-,N/A,,Clear,130,2012-11-18 09:15:00
2:35 AM,32.0,24.8,75,29.84,10.0,SSE,9.2,-,N/A,,Clear,150,2012-11-18 09:35:00
2:55 AM,32.0,24.8,75,29.83,10.0,SE,12.7,-,N/A,,Clear,140,2012-11-18 09:55:00
3:15 AM,32.0,24.8,75,29.82,10.0,SSE,12.7,-,N/A,,Clear,150,2012-11-18 10:15:00
3:35 AM,32.0,24.8,75,29.81,10.0,SE,12.7,-,N/A,,Clear,140,2012-11-18 10:35:00
3:55 AM,32.0,24.8,75,29.80,10.0,SSE,11.5,-,N/A,,Clear,150,2012-11-18 10:55:00
4:15 AM,32.0,24.8,75,29.79,10.0,SE,9.2,-,N/A,,Clear,140,2012-11-18 11:15:00
4:35 AM,35.6,26.6,70,29.79,10.0,SSE,15.0,-,N/A,,Clear,160,2012-11-18 11:35:00
4:55 AM,32.0,26.6,80,29.79,10.0,SE,6.9,-,N/A,,Clear,140,2012-11-18 11:55:00
5:15 AM,32.0,24.8,75,29.79,10.0,SSE,12.7,-,N/A,,Clear,150,2012-11-18 12:15:00
5:35 AM,32.0,26.6,80,29.78,10.0,SSE,11.5,-,N/A,,Clear,150,2012-11-18 12:35:00
5:55 AM,32.0,26.6,80,29.78,10.0,SE,9.2,-,N/A,,Clear,140,2012-11-18 12:55:00
6:15 AM,32.0,26.6,80,29.78,10.0,SE,6.9,-,N/A,,Clear,140,2012-11-18 13:15:00
6:35 AM,32.0,26.6,80,29.77,10.0,SE,5.8,-,N/A,,Clear,130,2012-11-18 13:35:00
6:55 AM,32.0,26.6,80,29.77,10.0,SE,3.5,-,N/A,,Clear,140,2012-11-18 13:55:00
7:15 AM,32.0,26.6,80,29.77,10.0,SE,6.9,-,N/A,,Clear,140,2012-11-18 14:15:00
7:35 AM,32.0,26.6,80,29.78,10.0,SE,6.9,-,N/A,,Partly Cloudy,140,2012-11-18 14:35:00
7:55 AM,32.0,26.6,80,29.77,10.0,SE,10.4,-,N/A,,Partly Cloudy,130,2012-11-18 14:55:00
8:15 AM,35.6,28.4,75,29.77,10.0,SE,11.5,-,N/A,,Partly Cloudy,140,2012-11-18 15:15:00
8:35 AM,35.6,28.4,75,29.76,10.0,SSE,12.7,-,N/A,,Clear,150,2012-11-18 15:35:00
8:55 AM,35.6,28.4,75,29.76,10.0,SSE,12.7,-,N/A,,Clear,150,2012-11-18 15:55:00
9:15 AM,37.4,30.2,75,29.76,10.0,SSE,13.8,-,N/A,,Clear,150,2012-11-18 16:15:00
9:35 AM,39.2,30.2,70,29.76,10.0,SSE,12.7,-,N/A,,Partly Cloudy,150,2012-11-18 16:35:00
9:55 AM,39.2,30.2,70,29.76,10.0,SSE,10.4,-,N/A,,Clear,150,2012-11-18 16:55:00
10:15 AM,39.2,32.0,75,29.77,10.0,SSE,10.4,-,N/A,,Partly Cloudy,160,2012-11-18 17:15:00
10:35 AM,41.0,32.0,70,29.76,10.0,SSE,9.2,-,N/A,,Partly Cloudy,150,2012-11-18 17:35:00
10:55 AM,42.8,32.0,66,29.75,10.0,SSE,9.2,-,N/A,,Clear,160,2012-11-18 17:55:00
11:15 AM,44.6,32.0,61,29.75,10.0,SSE,10.4,-,N/A,,Partly Cloudy,150,2012-11-18 18:15:00
11:35 AM,44.6,32.0,61,29.75,10.0,SSE,8.1,-,N/A,,Partly Cloudy,160,2012-11-18 18:35:00
11:55 AM,46.4,32.0,57,29.75,10.0,SSE,10.4,-,N/A,,Clear,150,2012-11-18 18:55:00
12:15 PM,46.4,33.8,62,29.76,10.0,South,6.9,-,N/A,,Partly Cloudy,180,2012-11-18 19:15:00
12:35 PM,48.2,33.8,58,29.75,10.0,South,10.4,-,N/A,,Clear,180,2012-11-18 19:35:00
12:55 PM,48.2,33.8,58,29.75,10.0,SSE,5.8,-,N/A,,Clear,150,2012-11-18 19:55:00
1:15 PM,50.0,35.6,58,29.75,10.0,SSE,5.8,-,N/A,,Clear,150,2012-11-18 20:15:00
1:35 PM,48.2,35.6,62,29.75,10.0,South,5.8,-,N/A,,Clear,180,2012-11-18 20:35:00
1:55 PM,48.2,35.6,62,29.75,10.0,SSE,3.5,-,N/A,,Clear,160,2012-11-18 20:55:00
2:15 PM,50.0,37.4,62,29.75,10.0,South,5.8,-,N/A,,Clear,170,2012-11-18 21:15:00
2:35 PM,50.0,37.4,62,29.76,10.0,SSW,6.9,-,N/A,,Clear,200,2012-11-18 21:35:00
2:55 PM,48.2,37.4,66,29.77,10.0,West,3.5,-,N/A,,Mostly Cloudy,260,2012-11-18 21:55:00
3:15 PM,48.2,37.4,66,29.79,10.0,West,5.8,-,N/A,,Mostly Cloudy,280,2012-11-18 22:15:00
3:35 PM,50.0,37.4,62,29.80,10.0,Calm,Calm,-,N/A,,Partly Cloudy,0,2012-11-18 22:35:00
3:55 PM,46.4,35.6,66,29.80,10.0,West,5.8,-,N/A,,Clear,270,2012-11-18 22:55:00
4:15 PM,42.8,33.8,70,29.82,10.0,West,12.7,-,N/A,,Clear,270,2012-11-18 23:15:00
4:35 PM,41.0,32.0,70,29.84,10.0,West,10.4,-,N/A,,Clear,280,2012-11-18 23:35:00
4:55 PM,41.0,32.0,70,29.85,10.0,WNW,13.8,-,N/A,,Partly Cloudy,290,2012-11-18 23:55:00
5:15 PM,41.0,32.0,70,29.87,10.0,NW,13.8,19.6,N/A,,Mostly Cloudy,310,2012-11-19 00:15:00
5:35 PM,39.2,32.0,75,29.88,10.0,WNW,12.7,-,N/A,,Scattered Clouds,300,2012-11-19 00:35:00
5:55 PM,39.2,32.0,75,29.89,10.0,NW,10.4,-,N/A,,Clear,310,2012-11-19 00:55:00
6:15 PM,37.4,32.0,81,29.90,10.0,NW,8.1,-,N/A,,Clear,310,2012-11-19 01:15:00
6:35 PM,37.4,32.0,81,29.90,10.0,NNW,9.2,-,N/A,,Clear,330,2012-11-19 01:35:00
6:55 PM,35.6,30.2,81,29.91,10.0,NNW,5.8,-,N/A,,Clear,340,2012-11-19 01:55:00
7:15 PM,33.8,30.2,87,29.92,10.0,NNW,3.5,-,N/A,,Clear,330,2012-11-19 02:15:00
7:35 PM,35.6,28.4,75,29.92,10.0,Calm,Calm,-,N/A,,Clear,0,2012-11-19 02:35:00
7:55 PM,33.8,28.4,81,29.93,10.0,Calm,Calm,-,N/A,,Partly Cloudy,0,2012-11-19 02:55:00
8:15 PM,35.6,26.6,70,29.95,10.0,WNW,5.8,-,N/A,,Clear,290,2012-11-19 03:15:00
8:35 PM,35.6,26.6,70,29.95,10.0,NNW,4.6,-,N/A,,Clear,340,2012-11-19 03:35:00
8:55 PM,35.6,26.6,70,29.96,10.0,NW,6.9,-,N/A,,Clear,320,2012-11-19 03:55:00
9:35 PM,32.0,26.6,80,29.98,10.0,WNW,8.1,-,N/A,,Partly Cloudy,300,2012-11-19 04:35:00
10:15 PM,33.8,26.6,75,29.98,10.0,WNW,4.6,-,N/A,,Overcast,300,2012-11-19 05:15:00
10:35 PM,33.8,26.6,75,29.99,10.0,West,5.8,-,N/A,,Overcast,270,2012-11-19 05:35:00
10:55 PM,33.8,26.6,75,29.98,10.0,West,3.5,-,N/A,,Mostly Cloudy,260,2012-11-19 05:55:00
11:15 PM,35.6,28.4,75,29.99,10.0,Calm,Calm,-,N/A,,Overcast,0,2012-11-19 06:15:00
11:35 PM,33.8,26.6,75,30.01,10.0,WNW,5.8,-,N/A,,Overcast,290,2012-11-19 06:35:00
11:55 PM,35.6,26.6,70,30.00,10.0,WNW,6.9,-,N/A,,Overcast,290,2012-11-19 06:55:00